Location: Irby (historical)
(34.9945°N, 90.3168°W)
Time: 04:18:00
(UTC+00:00)

Daily predictions for brighter satellites

Satellite Brightness Start Highest point End
(mag) Time Altitude Azimuth Time Altitude Azimuth Time Altitude Azimuth
Milstar 3 4.4 00:38:04 10° SSW 00:45:42 37° SSE 00:58:31 10° E
Meteor 1-16 Rocket 4.4 00:48:05 10° SSE 00:53:33 50° E 00:58:53 10° NNE
COSMOS 2406 3.4 00:49:43 10° NNW 00:55:30 82° WSW 01:01:13 10° SSE
Cosmos 1331 Rocket 4.1 00:55:24 10° SSW 01:00:36 84° WNW 01:05:53 10° NNE
Cosmos 1953 2.8 00:57:57 10° SSE 01:01:26 35° E 01:04:55 10° NNE
CZ-4B R/B 2.8 00:58:01 10° SSE 01:01:46 54° ENE 01:05:20 10° N
Cosmos 1850 Rocket 4.3 00:57:54 10° N 01:03:03 49° ENE 01:08:05 10° SE
Cosmos 2297 3.8 00:59:33 10° SSW 01:05:12 85° WNW 01:10:55 10° NNE
Meteor PRIRODA 3.9 01:04:32 10° S 01:07:54 64° W 01:11:19 10° NNW
SL-08 R/B 4.5 01:03:29 10° N 01:08:01 49° WNW 01:12:36 10° SSW
CZ-4B DEB 4.3 01:03:32 10° SSE 01:09:00 67° ENE 01:14:31 10° N
ADEOS Rocket 3.1 01:04:34 10° S 01:10:11 70° WSW 01:15:40 10° NNW
NOSS 3-1 (A) 4.5 01:11:16 10° SE 01:13:18 13° ESE 01:15:24 10° E
Cosmos 2369 Rocket 2.2 01:08:54 10° SSW 01:14:35 83° ESE 01:20:17 10° NNE
SJ 16-02 2.9 01:12:07 10° NNE 01:15:03 18° ENE 01:17:18 13° E
ADEOS 3.9 01:10:02 10° S 01:15:12 69° WSW 01:20:25 10° NNW
DELTA 2 DEB (DPAF) 4.4 01:12:21 10° NNE 01:16:19 39° E 01:20:16 10° S
NOSS 2-2 (C) 4.5 01:14:37 10° SW 01:17:58 38° WNW 01:20:57 10° NNE
SL-8 Rocket 4.4 01:13:45 10° N 01:19:36 43° E 01:25:23 10° SSE
Iridium 82 4.4 01:16:05 10° N 01:19:36 75° E 01:23:17 10° S
Cosmos 2263 4.1 01:17:53 10° SSW 01:23:28 71° ESE 01:29:04 10° NNE
SPOT 1/Viking Rocket 3.7 01:18:25 10° SSE 01:23:28 54° ENE 01:28:33 10° N
Cosmos 2098 Rocket 4.4 01:19:34 10° SSE 01:24:13 27° E 01:28:14 10° NE
APEX 4.1 01:21:38 10° NW 01:24:37 37° WSW 01:27:22 10° S
CZ-4B R/B 3.4 01:23:22 10° SSE 01:28:51 54° ENE 01:34:19 10° N
Okean-O 4.4 01:28:34 14° E 01:29:43 15° ENE 01:32:15 10° NNE
Cosmos 2341 Rocket 4.1 01:24:40 10° N 01:30:52 59° E 01:36:59 10° SSE
Cosmos 1674 Rocket 4.0 01:26:47 10° NNW 01:31:12 65° W 01:35:34 10° S
Cosmos 1825 2.1 01:28:10 10° N 01:31:32 50° E 01:34:23 13° SSE
USA 234 3.5 01:28:21 15° ESE 01:33:48 58° NE 01:40:12 10° NW
NOSS 3-1 (C) 2.8 01:31:37 10° SSW 01:36:09 58° ESE 01:41:21 10° NE
Cosmos 2082 Rocket 4.3 01:34:19 10° NW 01:39:01 27° WSW 01:43:41 10° SSW
Hubble Space Telescope 1.7 01:36:35 10° WSW 01:40:07 31° S 01:41:39 23° SE
Resurs 1-3 3.9 01:37:38 10° S 01:41:57 67° W 01:46:17 10° NNW
[s.n.70599] 3.5 01:43:11 10° W 01:45:30 32° SW 01:46:07 28° S
Cosmos 2366 rocket 4.0 01:44:09 10° N 01:50:30 69° E 01:56:48 10° SSE
Okean O Rocket 1.7 01:49:28 24° SE 01:51:52 54° ENE 01:56:08 10° N
Cosmos 1025 Rocket 2.9 01:47:43 10° N 01:52:05 77° E 01:55:30 16° SSE
ATLAS 3B R/B 2.9 01:50:53 10° S 01:57:24 49° ESE 02:04:24 10° NE
Resurs 01 Rocket 1.6 01:55:01 24° SSE 01:57:32 66° ENE 02:01:55 10° N
Cosmos 2218 Rocket 4.0 01:51:25 10° N 01:57:50 76° E 02:03:55 11° S
CARTOSAT-1 3.5 01:58:16 31° SE 02:00:10 62° ENE 02:04:24 10° N
Cosmos 1346 Rocket 3.8 01:57:19 10° SSW 02:00:59 44° W 02:04:40 10° N
SJ-6B 4.5 01:58:46 10° SSW 02:02:19 33° W 02:05:55 10° NNW
USA 281 3.4 01:59:34 26° SE 02:03:06 52° ENE 02:09:27 10° NNW
Cosmos 1975 Rocket 3.1 01:59:59 10° N 02:04:12 52° E 02:05:11 42° SE
Cosmos 1821 Rocket 4.2 02:00:08 10° N 02:06:04 48° E 02:08:32 32° SE
USA 129 4.3 02:04:12 10° N 02:05:08 17° NNW 02:05:08 17° NNW
Cosmos 1959 Rocket 4.4 02:01:52 10° N 02:08:00 87° E 02:13:23 14° S
Cosmos 1328 4.2 02:05:45 10° NNW 02:09:27 59° W 02:11:46 21° SSW
OAO 3 Rocket 3.1 02:07:04 10° W 02:11:58 88° S 02:13:29 45° E
Meteor 1-21 Rocket 4.4 02:09:24 10° NNW 02:15:20 77° W 02:20:11 16° S
USA 186 3.4 02:16:16 20° SW 02:17:45 31° W 02:20:31 10° NNW
DELTA 2 R/B (1) 3.7 02:13:08 10° WNW 02:18:41 62° SSW 02:20:22 42° SSE
CZ-4 R/B 3.7 02:19:35 10° SSW 02:22:39 21° W 02:25:41 10° NW
ATLAS 5 CENTAUR R/B 1.5 02:20:24 10° SW 02:23:39 53° NW 02:27:03 10° NNE
SPOT 5 3.6 02:24:44 39° ENE 02:24:52 39° ENE 02:29:47 10° N
Meteor 1-11 4.1 02:29:27 10° N 02:35:08 82° E 02:36:34 53° SSE
ERS-1 Rocket 4.2 02:36:16 27° NE 02:36:16 27° NE 02:39:30 10° N
MOS 1 4.2 02:45:26 65° SSE 02:46:19 85° ENE 02:52:03 10° NNW
Okean 2 Rocket 4.3 02:52:04 33° NNE 02:52:04 33° NNE 02:54:37 10° N
Cosmos 1934 Rocket 4.4 02:46:14 10° N 02:51:27 45° ENE 02:51:27 45° ENE
SJ 16-02 2.7 02:49:36 10° NW 02:53:27 32° W 02:54:07 30° WSW
OAO 1 Rocket 4.4 02:50:19 10° W 02:55:16 77° W 02:55:16 77° W
IRS-1C Rocket 4.1 02:56:50 74° NNE 02:56:50 74° NNE 03:01:44 10° N
Cosmos 2297 Rocket 4.2 02:57:16 10° NNE 02:59:36 16° NE 02:59:36 16° NE
NOSS 3-1 (A) 3.5 02:58:31 10° SW 03:03:10 56° NW 03:08:34 10° NNE
MetOp-B 4.2 03:05:02 77° NW 03:05:02 77° NW 03:10:03 10° NNW
Okean-O 3.7 03:06:02 40° W 03:06:02 40° W 03:09:54 10° NNW
Terra 3.3 03:09:26 29° NNE 03:09:26 29° NNE 03:11:53 10° N
USA 234 4.3 03:15:43 32° SSW 03:16:55 34° SW 03:22:45 10° WNW
Ariane Rocket 4.3 03:27:13 34° N 03:27:13 34° N 03:30:04 10° N
ATLAS 3B R/B 4.3 03:42:06 10° WSW 03:48:20 33° NW 03:54:58 10° NNE
Cosmos 2227 Rocket 4.3 04:11:04 10° N 04:12:58 20° N 04:12:58 20° N
CZ-4C R/B 4.1 04:31:13 10° NNW 04:36:24 37° NNE 04:36:24 37° NNE
Cosmos 2297 Rocket 4.4 04:39:42 10° NNW 04:41:24 20° NNW 04:41:24 20° NNW
CENTAUR R/B 4.2 05:09:06 10° NNW 05:15:26 41° NNE 05:15:26 41° NNE
ADEOS II 4.3 07:34:51 10° NE 07:36:44 20° NE 07:36:44 20° NE
CZ-2D R/B 4.0 07:47:16 10° NNE 07:49:32 26° NNE 07:49:32 26° NNE
SL-16 R/B 4.0 07:51:52 29° E 07:52:51 31° ENE 07:58:09 10° N
COSMOS 2428 4.0 08:10:38 36° NNE 08:10:38 36° NNE 08:13:54 10° NNE
CZ-2C R/B 4.1 08:17:16 32° N 08:17:16 32° N 08:20:05 10° N
Cosmos 2237 Rocket 3.5 08:16:42 34° E 08:16:42 34° E 08:20:48 10° NE
Lacrosse 5 4.3 08:21:30 15° NNW 08:21:30 15° NNW 08:23:28 10° N
ATLAS 2AS CENTAUR R/B 4.4 08:19:52 22° SE 08:21:51 24° ESE 08:27:28 10° ENE
CZ-2C R/B 4.3 08:20:29 10° NNE 08:23:30 37° NNE 08:23:30 37° NNE
ALOS 4.1 08:21:29 10° NNE 08:23:57 28° NE 08:23:57 28° NE
Resurs 1-4 Rocket 3.8 08:27:47 10° N 08:30:10 25° NNW 08:30:10 25° NNW
Cosmos 2333 Rocket 4.5 08:34:50 13° NNW 08:34:50 13° NNW 08:36:13 10° NNW
Nadezhda 4 Rocket 4.3 08:44:01 57° NNW 08:44:01 57° NNW 08:48:54 10° N
H-2A R/B 4.2 08:46:25 37° S 08:46:25 37° S 09:13:11 10° ESE
NOSS 0 Rocket 4.0 08:48:14 68° NNW 08:48:14 68° NNW 08:53:43 10° NNE
Cosmos 1680 Rocket 4.4 08:47:51 43° ESE 08:48:00 43° ESE 08:52:59 10° NNE
Cosmos 2278 Rocket 3.2 08:47:42 10° N 08:53:08 44° ENE 08:58:29 10° SE
Cosmos 1428 Rocket 4.4 08:53:48 88° SSW 08:53:52 89° W 09:00:12 10° N
Cosmos 2219 Rocket 4.2 08:55:50 15° NW 08:55:50 15° NW 08:57:54 10° NNW
BREEZE-M DEB (TANK) 3.8 09:00:45 77° N 09:00:45 77° N 09:10:48 10° NE
RESURS DK-1 4.4 09:04:22 20° N 09:04:22 20° N 09:05:54 10° N
SL-16 R/B 3.9 09:03:20 18° SE 09:06:17 28° ESE 09:11:00 10° NE
Cosmos 1151 Rocket 3.8 09:07:55 46° NNE 09:07:55 46° NNE 09:11:01 10° N
METEOR-M 4.3 09:05:26 10° NNE 09:10:44 65° ESE 09:11:50 52° SSE
CZ-2C R/B 3.3 09:07:45 10° NNE 09:12:45 48° E 09:14:38 33° SSE
BREEZE-M DEB (TANK) 4.5 09:13:45 46° WSW 09:16:36 75° NNW 09:50:23 10° ENE
Cosmos 921 Rocket 4.0 09:16:42 37° ESE 09:17:20 40° E 09:21:21 10° NNE
ADEOS II 3.6 09:14:44 10° NNW 09:17:38 23° NW 09:17:38 23° NW
Cosmos 1626 4.1 09:18:46 19° ESE 09:19:28 21° E 09:22:00 10° NE
Meteor 1-19 Rocket 4.3 09:20:01 59° W 09:20:13 59° W 09:26:07 10° N
Cosmos 923 Rocket 4.0 09:23:20 60° WNW 09:23:20 60° WNW 09:28:28 10° N
Cosmos 1975 4.4 09:20:30 10° NNE 09:24:01 33° E 09:27:22 11° SE
Cosmos 1092 Rocket 3.9 09:24:59 55° SW 09:25:58 63° W 09:32:03 10° N
CZ-2D R/B 4.2 09:29:35 10° NW 09:30:50 12° NW 09:30:50 12° NW
Cosmos 2026 Rocket 4.1 09:32:12 48° WSW 09:33:25 55° W 09:39:38 10° N
Envisat 2.8 09:28:36 10° N 09:33:41 78° WNW 09:34:51 53° SSW
BREEZE-M DEB (TANK) 3.5 09:34:04 39° W 09:35:31 47° NW 09:38:39 10° NE
SL-16 R/B 3.1 09:36:56 36° W 09:36:56 36° W 09:41:54 10° NNW
NOSS 2-2 (E) 4.4 09:31:23 10° NNW 09:36:31 80° ENE 09:43:55 10° SSE
EO 1 Delta rocket 4.2 09:37:28 10° N 09:41:49 43° WNW 09:41:49 43° WNW
Meteor 1-18 Rocket 4.2 09:39:20 23° S 09:42:52 81° E 09:48:34 10° N
Cosmos 1666 Rocket 3.8 09:41:07 10° N 09:45:34 70° E 09:49:58 10° SSE
CZ-4 R/B 4.3 09:45:13 10° N 09:49:36 39° WNW 09:49:59 38° W
Meteor 2-4 Rocket 3.5 09:48:37 32° SSW 09:51:06 70° W 09:56:34 10° N
NOSS 2-2 (D) 4.5 09:46:04 10° NNW 09:51:07 77° ENE 09:58:21 10° SE
Thor Agena Rocket 3.4 09:46:25 10° N 09:51:26 73° WNW 09:53:50 31° SSW
Cosmos 1943 Rocket 2.3 09:46:38 10° NNW 09:52:20 79° ENE 09:57:59 10° SSE
YAOGAN 6 2.4 09:50:03 10° N 09:53:02 58° NW 09:53:02 58° NW
H-2A R/B 3.5 09:50:42 10° NNE 09:55:18 35° E 09:59:59 10° SSE
BlueWalker 3 4.0 09:52:55 10° NNW 09:56:13 27° NE 09:59:31 10° E
NOAA 11 4.3 09:54:17 10° N 09:59:34 54° WNW 10:02:18 28° SW
Cosmos 2237 Rocket 3.3 09:58:31 25° W 09:59:42 27° WNW 10:04:27 10° N
ALOS 4.1 10:00:07 10° NNW 10:02:17 15° WNW 10:02:17 15° WNW
Cosmos 2112 Rocket 4.5 10:01:06 32° WSW 10:02:53 42° WNW 10:07:57 10° N
Cosmos 1340 Rocket 3.6 10:04:12 31° WNW 10:04:12 31° WNW 10:07:30 10° NNW
Cosmos 1867 4.2 10:01:21 10° NW 10:06:08 32° WSW 10:10:54 10° S
DMSP B5D2-2 4.0 10:03:11 10° SSE 10:08:23 90° SW 10:13:37 10° NNW
Cosmos 1328 Rocket 3.9 10:08:30 30° SW 10:10:09 44° W 10:14:24 10° N
ATLAS 2AS CENTAUR R/B 3.0 10:07:19 22° SW 10:12:17 63° WNW 10:19:28 10° NNE
Cosmos 1805 3.6 10:09:26 10° NNW 10:12:52 37° W 10:13:52 31° SW
CRYOSAT 2 4.4 10:09:10 10° N 10:14:03 85° E 10:18:55 10° S
Cosmos 1707 4.4 10:12:52 10° SSE 10:16:10 33° E 10:19:29 10° NNE
SWAS 4.3 10:15:02 10° NNW 10:19:13 73° WSW 10:23:24 10° SSE
Chandra Rocket (1) 2.9 10:18:55 22° SSW 10:20:29 34° SSE 10:26:46 10° E
IRS-1D 4.1 10:17:57 10° N 10:22:39 38° WNW 10:26:05 17° SW
Cosmos 1633 Rocket 3.2 10:19:20 10° NNW 10:23:31 49° W 10:27:42 10° SSW
S3M 4.2 10:18:46 10° N 10:24:57 77° E 10:31:10 10° S
Cosmos 1048 Rocket 4.0 10:20:55 10° SSW 10:26:15 89° WNW 10:31:34 10° NNE
Cosmos 1943 4.5 10:22:04 10° S 10:27:21 41° ESE 10:32:40 10° NE
Cosmos 2266 Rocket 3.9 10:22:45 10° SSW 10:28:52 74° W 10:34:56 10° N
Cosmos 1655 Rocket 4.2 10:23:09 10° S 10:29:20 77° E 10:35:33 10° N
SL-08 ROCKET BODY 4.3 10:28:33 10° S 10:34:24 78° W 10:40:23 10° N
Cosmos 2278 Rocket 3.3 10:32:38 10° NW 10:36:48 21° W 10:40:58 10° SSW
Cosmos 1461 4.0 10:39:33 10° WNW 10:42:15 19° WSW 10:44:57 10° SSW
ARIANE 5 R/B 3.7 10:37:27 10° NNE 10:42:29 47° E 10:47:28 10° S
Cosmos 1420 Rocket 4.5 10:38:27 10° NW 10:43:16 37° W 10:48:05 10° SSW
Cosmos 1674 2.4 10:40:33 10° SSW 10:43:56 58° W 10:47:19 10° N
USA 308 3.6 10:41:23 15° W 10:44:01 32° NW 10:47:34 10° NNE
Delta 2 Rocket 4.4 10:40:59 12° SW 10:45:19 45° SSE 10:49:44 10° E
Cosmos 2056 Rocket 3.9 10:42:13 10° NNW 10:47:17 42° WSW 10:52:21 10° S
ATLAS 5 CENTAUR R/B 3.5 10:42:33 11° WSW 10:47:42 18° SSW 10:50:51 10° SSE
SL-16 R/B 3.0 10:45:15 11° SW 10:50:11 34° WNW 10:55:18 10° N
CZ-2C R/B 4.1 10:47:01 10° NNW 10:50:26 18° WNW 10:53:50 10° WSW
Cosmos 2315 Rocket 4.1 10:45:28 10° N 10:51:41 84° E 10:57:52 10° S
ARGOS 4.0 10:46:43 10° NNE 10:51:59 55° E 10:57:13 10° S
Cosmos 1766 3.5 10:49:27 10° NNW 10:52:55 40° W 10:56:23 10° SSW
Cosmos 1939 Rocket 2.6 10:49:16 10° N 10:53:02 71° WNW 10:56:47 10° SSW
Cosmos 1626 3.8 10:51:53 11° W 10:53:11 13° WNW 10:54:52 10° NW
Cosmos 1452 Rocket 4.3 10:49:17 10° N 10:54:28 58° ENE 10:59:37 10° SSE
Cosmos 1340 4.1 10:52:59 10° NW 10:55:01 15° W 10:57:02 10° SW
KORONAS-FOTON 3.9 10:52:30 10° SSW 10:56:04 49° W 10:59:38 10° N
Cosmos 1656 Rocket 3.9 10:55:31 10° NNW 11:00:56 75° ENE 11:06:20 10° SSE
NOSS 3-1 (C) 4.4 10:54:42 10° NNW 11:02:37 86° ENE 11:11:55 10° SSE
ASTRO E2 3.5 11:01:28 10° SW 11:04:42 34° SSE 11:07:57 10° ESE
CZ-3 R/B 3.1 11:05:22 10° WSW 11:22:25 46° S 11:28:06 10° ESE
